GW5761 Weather Reports


time (UTC)temp
C
wind
direction
speed
KPH
gust
KPH
rain 1hr
cm
rain 24hr
cm
rain mn
cm
humidity
%
barometer
mb
20260502210223 25 357 6.4 11.3 0.00 0.00 0.00 35 1020.2
20260502205720 25 266 6.4 11.3 0.00 0.00 0.00 35 1020.3
20260502205216 26 2 3.2 14.5 0.00 0.00 0.00 34 1020.3
20260502204713 26 352 3.2 8.0 0.00 0.00 0.00 34 1020.4
20260502204211 26 273 3.2 6.4 0.00 0.00 0.00 34 1020.4
20260502203708 26 198 0.0 6.4 0.00 0.00 0.00 35 1020.5
20260502203206 24 93 1.6 8.0 0.00 0.00 0.00 37 1020.7
20260502202700 25 241 6.4 8.0 0.00 0.00 0.00 36 1020.6
20260502202159 26 273 6.4 12.9 0.00 0.00 0.00 35 1020.6
20260502201655 25 274 1.6 3.2 0.00 0.00 0.00 35 1020.8
20260502201152 25 57 4.8 8.0 0.00 0.00 0.00 37 1020.9
20260502200648 26 292 4.8 11.3 0.00 0.00 0.00 35 1020.9
20260502200144 25 240 1.6 6.4 0.00 0.00 0.00 35 1021.0
20260502195643 25 81 3.2 8.0 0.00 0.00 0.00 37 1021.1
20260502195138 23 111 0.0 9.7 0.00 0.00 0.00 37 1021.2
20260502194635 25 216 3.2 19.3 0.00 0.00 0.00 36 1021.2
20260502194132 25 273 8.0 9.7 0.00 0.00 0.00 35 1021.2
20260502193628 25 290 4.8 9.7 0.00 0.00 0.00 34 1021.2
20260502193126 25 297 6.4 19.3 0.00 0.00 0.00 34 1021.4
20260502192621 25 228 3.2 25.7 0.00 0.00 0.00 37 1021.4
20260502192119 23 271 3.2 6.4 0.00 0.00 0.00 37 1021.4
20260502191615 25 284 9.7 16.1 0.00 0.00 0.00 35 1021.5
20260502191113 25 354 4.8 8.0 0.00 0.00 0.00 35 1021.6
20260502190610 25 282 3.2 14.5 0.00 0.00 0.00 34 1021.7
20260502190108 25 263 3.2 6.4 0.00 0.00 0.00 36 1021.7
20260502185602 25 23 4.8 11.3 0.00 0.00 0.00 36 1021.6
20260502185059 25 315 11.3 14.5 0.00 0.00 0.00 35 1021.6
20260502184555 25 256 3.2 11.3 0.00 0.00 0.00 34 1021.7
20260502184051 25 267 4.8 8.0 0.00 0.00 0.00 35 1021.9
20260502183548 25 251 3.2 8.0 0.00 0.00 0.00 36 1021.8
20260502183044 24 258 6.4 8.0 0.00 0.00 0.00 37 1021.9
20260502182539 24 273 3.2 8.0 0.00 0.00 0.00 36 1021.9
20260502182035 24 207 6.4 8.0 0.00 0.00 0.00 37 1022.2
20260502181533 23 96 3.2 14.5 0.00 0.00 0.00 38 1022.3
20260502181032 23 264 4.8 11.3 0.00 0.00 0.00 39 1022.2
20260502180529 23 225 3.2 14.5 0.00 0.00 0.00 40 1022.1
20260502170453 22 262 8.0 8.0 0.00 0.00 0.00 43 1022.6
20260502163937 22 248 4.8 8.0 0.00 0.00 0.00 44 1023.0
20260502163433 22 2 4.8 8.0 0.00 0.00 0.00 42 1023.0
20260502162931 22 66 4.8 6.4 0.00 0.00 0.00 44 1022.8
20260502162427 22 242 0.0 4.8 0.00 0.00 0.00 48 1022.8
20260502161924 22 246 1.6 9.7 0.00 0.00 0.00 48 1022.9
20260502161420 22 82 3.2 6.4 0.00 0.00 0.00 49 1023.1
20260502160919 22 321 0.0 6.4 0.00 0.00 0.00 50 1022.8
20260502160416 21 82 3.2 11.3 0.00 0.00 0.00 52 1022.9
20260502151855 21 295 1.6 6.4 0.00 0.00 0.00 52 1022.3
20260502151351 20 350 0.0 6.4 0.00 0.00 0.00 55 1022.1
20260502150849 21 225 0.0 6.4 0.00 0.00 0.00 55 1022.5
20260502150345 20 232 0.0 3.2 0.00 0.00 0.00 60 1022.4
20260502130733 15 356 6.4 8.0 0.00 0.00 0.00 81 1022.1
20260502130231 15 123 1.6 6.4 0.00 0.00 0.00 82 1021.8
20260502123717 13 61 1.6 4.8 0.00 0.00 0.00 89 1021.4
20260502123213 13 107 1.6 3.2 0.00 0.00 0.00 91 1021.3
20260502122710 13 41 3.2 4.8 0.00 0.00 0.00 91 1021.1
20260502122206 12 157 3.2 3.2 0.00 0.00 0.00 93 1021.1
20260502121705 12 77 3.2 3.2 0.00 0.00 0.00 94 1020.8
20260502121203 12 113 3.2 3.2 0.00 0.00 0.00 94 1020.7
20260502120658 12 56 3.2 3.2 0.00 0.00 0.00 95 1020.5
20260502120155 11 73 0.0 4.8 0.00 0.00 0.00 96 1020.2
20260502115653 11 81 3.2 4.8 0.00 0.00 0.00 96 1020.6
20260502115149 11 32 4.8 4.8 0.00 0.00 0.00 96 1020.1
20260502114645 11 41 3.2 4.8 0.00 0.00 0.00 96 1020.2
20260502114143 11 58 1.6 4.8 0.00 0.00 0.00 96 1020.0
20260502113640 11 37 1.6 6.4 0.00 0.00 0.00 96 1019.9
20260502113138 11 74 3.2 6.4 0.00 0.00 0.00 96 1020.1
20260502112636 11 38 3.2 6.4 0.00 0.00 0.00 95 1019.8
20260502112133 11 62 0.0 3.2 0.00 0.00 0.00 95 1019.9
20260502111631 11 86 0.0 4.8 0.00 0.00 0.00 95 1019.8
20260502111128 11 121 4.8 4.8 0.00 0.00 0.00 95 1019.8
20260502110626 11 128 1.6 6.4 0.00 0.00 0.00 95 1019.7
20260502110123 11 49 3.2 6.4 0.00 0.00 0.00 94 1019.8
20260502105620 11 38 1.6 6.4 0.00 0.00 0.00 94 1019.6
20260502105117 11 100 3.2 3.2 0.00 0.00 0.00 93 1019.8
20260502104614 11 83 0.0 3.2 0.00 0.00 0.00 93 1019.6
20260502104111 11 128 1.6 4.8 0.00 0.00 0.00 93 1019.4
20260502103609 11 52 4.8 4.8 0.00 0.00 0.00 92 1019.5
20260502103107 11 56 3.2 6.4 0.00 0.00 0.00 92 1019.5
20260502102603 11 324 3.2 4.8 0.00 0.00 0.00 92 1019.5
20260502102100 11 35 3.2 3.2 0.00 0.00 0.00 92 1019.5
20260502101558 11 354 3.2 4.8 0.00 0.00 0.00 91 1019.4
20260502101056 11 170 1.6 6.4 0.00 0.00 0.00 91 1019.3
20260502100554 12 11 3.2 6.4 0.00 0.00 0.00 91 1019.3
20260502091529 12 98 3.2 6.4 0.00 0.00 0.00 90 1019.0
20260502091026 12 11 4.8 8.0 0.00 0.00 0.00 90 1019.2
20260502090523 12 81 1.6 6.4 0.00 0.00 0.00 90 1019.1
20260502071418 12 112 1.6 4.8 0.00 0.00 0.00 93 1019.1
20260502070916 12 352 1.6 4.8 0.00 0.00 0.00 93 1019.2
20260502070414 12 68 3.2 4.8 0.00 0.00 0.00 93 1019.2
20260502065912 12 18 3.2 8.0 0.00 0.00 0.00 93 1019.3
20260502065410 12 143 1.6 6.4 0.00 0.00 0.00 94 1019.1
20260502064908 12 105 1.6 4.8 0.00 0.00 0.00 94 1019.3
20260502064405 12 29 4.8 6.4 0.00 0.00 0.00 94 1019.2
20260502063902 12 14 3.2 8.0 0.00 0.00 0.00 94 1019.3
20260502063400 12 83 3.2 6.4 0.00 0.00 0.00 95 1019.1
20260502062857 12 27 3.2 6.4 0.00 0.00 0.00 95 1019.3
20260502062354 12 125 1.6 4.8 0.00 0.00 0.00 95 1019.3
20260502061854 12 11 1.6 6.4 0.00 0.00 0.00 95 1019.2
20260502061351 12 143 0.0 6.4 0.00 0.00 0.00 95 1019.3
20260502060846 12 168 1.6 4.8 0.00 0.00 0.00 95 1019.3
20260502060341 12 8 1.6 6.4 0.00 0.00 0.00 95 1019.4
20260502055839 12 37 0.0 4.8 0.00 0.00 0.00 95 1019.3
20260502055337 12 43 1.6 6.4 0.00 0.00 0.00 95 1019.2
20260502054836 12 197 0.0 4.8 0.00 0.00 0.00 95 1019.2
20260502054333 12 64 3.2 3.2 0.00 0.00 0.00 95 1019.2
20260502053831 12 110 3.2 4.8 0.00 0.00 0.00 95 1019.4
20260502053328 12 255 1.6 4.8 0.00 0.00 0.00 95 1019.4
20260502052825 12 105 1.6 6.4 0.00 0.00 0.00 95 1019.1
20260502052323 12 236 1.6 6.4 0.00 0.00 0.00 95 1019.2
20260502051821 13 136 1.6 4.8 0.00 0.00 0.00 94 1019.3
20260502051320 13 130 1.6 4.8 0.00 0.00 0.00 94 1019.2
20260502050816 13 81 0.0 4.8 0.00 0.00 0.00 94 1019.3
20260502050312 13 164 3.2 3.2 0.00 0.00 0.00 94 1019.1
20260502045809 13 60 3.2 8.0 0.00 1.07 1.07 94 1019.1
20260502045306 13 154 1.6 4.8 0.00 1.07 1.07 94 1018.9
20260502044803 13 120 0.0 6.4 0.00 1.07 1.07 94 1018.9
20260502044259 13 107 3.2 3.2 0.00 1.07 1.07 94 1019.1
20260502043756 13 186 1.6 6.4 0.00 1.07 1.07 94 1019.1
20260502043254 13 149 3.2 4.8 0.00 1.07 1.07 94 1018.9
20260502042753 13 162 1.6 6.4 0.00 1.07 1.07 94 1018.9
20260502042250 13 215 1.6 3.2 0.00 1.07 1.07 94 1018.9
20260502041748 13 188 0.0 3.2 0.00 1.07 1.07 94 1018.9
20260502041245 13 161 1.6 3.2 0.00 1.07 1.07 94 1018.7
20260502040742 13 235 3.2 4.8 0.00 1.07 1.07 95 1018.9
20260502040239 13 106 1.6 3.2 0.00 1.07 1.07 94 1018.8
20260502035735 13 42 4.8 4.8 0.00 1.07 1.07 94 1018.8
20260502035232 13 208 0.0 4.8 0.00 1.07 1.07 94 1018.8
20260502034729 13 85 1.6 1.6 0.00 1.07 1.07 94 1018.7
20260502034227 13 211 0.0 3.2 0.00 1.07 1.07 94 1018.7
20260502033725 13 129 0.0 1.6 0.00 1.07 1.07 94 1018.6
20260502033223 13 130 0.0 3.2 0.00 1.07 1.07 94 1018.5
20260502032719 13 127 0.0 1.6 0.00 1.07 1.07 94 1018.3
20260502032215 13 83 1.6 1.6 0.00 1.07 1.07 93 1018.5
20260502031714 13 113 3.2 6.4 0.00 1.07 1.07 93 1018.4
20260502031211 13 125 4.8 4.8 0.00 1.07 1.07 93 1018.4
20260502030710 13 2 3.2 3.2 0.00 1.07 1.07 93 1018.4
20260502030207 13 207 3.2 6.4 0.00 1.07 1.07 93 1018.5
20260502025704 13 118 3.2 6.4 0.00 1.07 1.07 93 1018.4
20260502025202 13 220 1.6 4.8 0.00 1.07 1.07 93 1018.4
20260502024659 13 88 0.0 6.4 0.00 1.07 1.07 92 1017.9
20260502024158 13 65 3.2 4.8 0.05 1.07 1.07 93 1017.8
20260502023655 13 125 4.8 9.7 0.05 1.07 1.07 93 1018.1
20260502023152 13 134 4.8 9.7 0.00 1.04 1.04 93 1017.9
20260502022649 13 132 3.2 8.0 0.00 1.04 1.04 92 1018.4
20260502022146 13 124 4.8 6.4 0.00 1.04 1.04 92 1018.4
20260502021644 13 145 1.6 1.6 0.00 1.04 1.04 93 1019.1
20260502021140 13 165 1.6 3.2 0.00 1.04 1.04 93 1018.8
20260502020638 13 160 3.2 3.2 0.00 1.04 1.04 93 1018.5
20260502020134 13 117 3.2 4.8 0.00 1.04 1.04 93 1018.2
20260502015633 13 119 3.2 4.8 0.00 1.04 1.04 93 1018.2
20260502015128 13 107 3.2 4.8 0.00 1.04 1.04 92 1018.0
20260502014626 13 87 1.6 3.2 0.00 1.04 1.04 92 1018.2
20260502014123 13 61 3.2 4.8 0.00 1.04 1.04 93 1018.1
20260502013619 13 243 0.0 3.2 0.00 1.04 1.04 93 1017.8
20260502013115 13 122 0.0 6.4 0.00 1.04 1.04 92 1017.6
20260502012613 13 338 3.2 4.8 0.00 1.04 1.04 92 1017.6
20260502012111 13 51 6.4 6.4 0.00 1.04 1.04 92 1017.2
20260502011607 13 347 3.2 6.4 0.00 1.04 1.04 91 1017.1
20260502011103 13 192 0.0 4.8 0.00 1.04 1.04 91 1017.4
20260502010600 13 21 3.2 6.4 0.00 1.04 1.04 91 1017.5
20260502010056 13 59 1.6 3.2 0.00 1.04 1.04 91 1017.7
20260502005554 13 96 3.2 4.8 0.00 1.04 1.04 91 1017.6
20260502005052 13 353 3.2 4.8 0.00 1.04 1.04 90 1017.5
20260502004547 13 35 3.2 4.8 0.00 1.04 1.04 90 1017.3
20260502004044 13 16 3.2 4.8 0.00 1.04 1.04 90 1017.3
20260502003542 14 25 1.6 4.8 0.05 1.04 1.04 89 1017.6
20260502003039 14 53 1.6 3.2 0.05 1.04 1.04 89 1017.6
20260502002535 13 28 3.2 4.8 0.00 1.04 1.04 88 1017.6
20260502002032 14 60 3.2 3.2 0.00 1.04 1.04 88 1017.6
20260502001530 14 77 3.2 4.8 0.00 1.04 1.04 88 1017.2
20260502001027 14 63 3.2 4.8 0.05 1.04 1.04 88 1017.2
20260502000526 14 99 3.2 3.2 0.05 1.04 1.04 89 1017.3
20260502000022 14 108 3.2 6.4 0.00 1.04 1.04 88 1017.3
20260501235518 14 94 4.8 6.4 0.00 1.04 1.04 88 1016.9
20260501235014 14 101 3.2 3.2 0.00 1.04 1.04 88 1016.9
20260501234510 14 84 0.0 3.2 0.00 1.04 1.04 88 1017.2
20260501234009 14 59 0.0 3.2 0.00 1.04 1.04 88 1017.1
20260501233506 14 46 1.6 4.8 0.00 1.04 1.04 88 1017.1
20260501233002 14 32 3.2 6.4 0.00 1.04 1.04 87 1016.8
20260501232459 14 84 1.6 4.8 0.05 1.04 1.04 85 1016.8
20260501231956 14 260 3.2 4.8 0.05 1.04 1.04 84 1016.8
20260501231454 14 125 4.8 11.3 0.00 1.02 1.02 84 1016.9
20260501230952 15 281 0.0 8.0 0.05 1.02 1.02 83 1016.5
20260501230451 15 180 3.2 4.8 0.05 1.02 1.02 81 1016.5
20260501225948 15 149 3.2 3.2 0.00 1.02 1.02 80 1016.9
20260501225445 15 102 6.4 9.7 0.00 1.02 1.02 79 1017.3
20260501224941 15 79 8.0 11.3 0.00 1.02 1.02 78 1016.9
20260501224439 15 92 11.3 17.7 0.00 1.02 1.02 78 1016.6
20260501223936 15 85 4.8 20.9 0.00 1.02 1.02 78 1016.5
20260501223432 15 120 3.2 8.0 0.00 1.02 1.02 77 1016.3
20260501222927 15 98 3.2 9.7 0.00 1.02 1.02 78 1016.4
20260501222425 15 109 9.7 9.7 0.00 1.02 1.02 77 1016.2
20260501221921 15 161 4.8 9.7 0.00 1.02 1.02 76 1015.9
20260501221419 15 110 9.7 16.1 0.00 1.02 1.02 75 1015.7
20260501220916 16 113 8.0 12.9 0.00 1.02 1.02 75 1015.8
20260501220414 15 181 3.2 8.0 0.00 1.02 1.02 75 1015.6
20260501215910 16 157 6.4 9.7 0.00 1.02 1.02 74 1015.4
20260501215407 16 306 3.2 9.7 0.00 1.02 1.02 74 1015.6
20260501214902 16 255 4.8 9.7 0.00 1.02 1.02 73 1015.6
20260501214402 16 105 8.0 9.7 0.00 1.02 1.02 75 1015.6
20260501213858 15 260 3.2 16.1 0.00 1.02 1.02 75 1015.9
20260501213355 15 119 11.3 14.5 0.00 1.02 1.02 76 1015.9
20260501212851 15 181 3.2 6.4 0.00 1.02 1.02 76 1016.2
20260501212348 15 265 4.8 8.0 0.00 1.02 1.02 76 1016.3
20260501211845 15 110 4.8 8.0 0.00 1.02 1.02 78 1016.6
20260501211342 15 120 3.2 8.0 0.00 1.02 1.02 78 1016.5
20260501210839 15 346 4.8 6.4 0.00 1.02 1.02 78 1017.1